User: anonymous   Login
Location: Unspecified
(0.0000°N, 0.0000°E)
Time: 21:28:12
(UTC+00:00)
Language:

LANDSAT 8 - Orbit

View from above orbital plane
View from above orbital plane
View from above satellite
View from above satellite

Ground track
Ground track

The orbit data is extracted from the following two-line orbital elements,

1 39084U 13008A   17115.90036620 +.00000109 +00000-0 +34134-4 0  9996
2 39084 098.1848 187.0101 0001354 094.0730 266.0623 14.57125509211613
Epoch (UTC): 25 April 2017 21:36:31
Eccentricity: 0.0001354
inclination: 98.1848°
perigee height: 701 km
apogee height: 703 km
right ascension of ascending node: 187.0101°
argument of perigee: 94.0730°
revolutions per day: 14.57125509
mean anomaly at epoch: 266.0623°
orbit number at epoch: 21161

The dashed part of the orbit path shows where the satellite is in the earth's shadow,  

DLR